DELTA 1 DEB, 4841

Orbit data source: Space-Track

DELTA 1 DEB, 4841 is space debris originally from a launch on Thu, 04 Jul 1968 UTC launched from the Air Force Western Test Range (AFWTR). Debris objects in space refer to the collection of defunct objects orbiting the Earth. Examples of debris include non-operational satellites, rocket bodies, and fragments generated from explosions, collisions, or faulty payload assembly.

Loading next visibility...
Identifier
4841, 1968-055D
Orbit
Active
Country
Flag of USUS
Related business
Manufacturer
Unknown
Mission
Spacecraft
Bus & Motor
Unknown
Mass
Unknown
Launch date (UTC)
1968-07-04 (58 years ago)
Launch vehicle
Unknown
Launch site
Air Force Western Test Range (AFWTR)
Object type
Payload
Rocket body
Debris
Shape & HBR
Unknown shape, 0.1 m
Radar Cross Section
Small (<0.1 m²)

Expand to show TLE details & history
Last TLE update: 7 hours ago

TLE from 7 hours ago
0 DELTA 1 DEB
1  4841U 68055D   26125.70185558  .00000095  00000-0  19457-3 0  9999
2  4841 120.7154 187.5125 2694130 197.8457 330.5001  9.29253126131482
Epoch: 2026-05-05T16:50Z
TLE epoch observation values (Epoch: 2026-05-05T16:50:40.322Z)
Latitude
27.5894°
Longitude
-90.73934°
Altitude
1,186.837 km
Speed
7.984 km/s
True Right ascension
01h 42m 00s
True Declination
27° 27' 23"
Sunlit
Object was in daylight at epoch
Visualization orbit readout
Latitude
Unknown
Longitude
Unknown
Altitude
Unknown
Speed
Unknown
Apparent Right ascension
Unknown
Apparent Declination
Unknown
Sunlit
N/A
Visualization observer readout
Local Sidereal Time
07:45:35
Azimuth
Unknown
Elevation
Unknown
Doppler factor
Unknown
Orbital elements
Apogee altitude
5,752.685 km
Perigee altitude
603.531 km
Semi-major axis
9,556.245 km
Eccentricity
0.26941
Inclination
120.7154°
RAAN
187.5125°
Arg. of periapsis
197.8457°
True anomaly
309.62563°
Mean anomaly
330.5001°
Eccentric anomaly
320.72917°
Mean motion
2.32334 °/min
Orbital period
154.95 mins
BSTAR
0.00019457
Loading maneuver chart data...
Computing Atmospheric mass density...
Loading historical data...
Loading historical data...
Loading historical data...
Loading historical data...
Loading historical data...
Loading historical data...
Loading historical data...

Documentation

Showing up to 5 results
|